Probability
0 0 0 0 0 0 0 0 0 0 0 0 0 0 0 0 0 0 0 0 0 0 0 0 0 0 0 0 0 0 0 0 0 0 0 1 0 0
0 0 0 0 0 0 0 0 0 0 0 0 0 0 0 0 0 0 0 0 0 0 0 0 0 0 0 0 0 0 0 0 0 0 1 1 1 1
0 0 0 0 0 0 0 0 0 0 0 0 0 0 0 0 0 0 0 0 0 0 0 0 0 0 0 0 0 0 0 0 0 0 1 1 1 1
0 0 0 0 0 0 0 0 0 0 0 0 0 0 0 0 0 0 0 0 0 0 0 0 0 0 0 0 0 0 0 0 0 0 0 0 0 1
0 0 0 0 0 0 0 0 0 0 0 0 0 0 0 0 0 0 0 0 0 0 0 0 0 0 0 0 0 0 0 0 0 0 0 0 0 0
0 0 0 0 0 0 0 0 0 0 0 0 0 0 0 0 0 0 0 0 0 0 0 0 0 0 0 0 0 0 0 0 0 0 0 0 0 0
0 0 0 0 0 0 0 0 0 0 0 0 0 0 0 0 0 0 0 0 0 0 0 0 0 1 1 1 0 0 0 0 0 0 0 0 0 0
0 0 0 0 0 0 0 0 0 0 1 0 0 0 0 0 0 0 0 0 0 0 0 0 0 1 2 1 0 0 0 0 0 0 0 0 0 0
0 0 0 0 0 0 0 0 0 0 0 0 0 0 0 0 0 0 0 1 2 1 0 0 0 1 1 1 0 0 0 0 0 0 0 0 0 0
1 0 0 0 0 0 0 0 0 0 0 0 0 0 0 0 0 1 1 2 3 2 1 0 0 0 0 0 0 0 0 0 0 0 0 0 0 0
2 1 0 0 0 0 0 0 0 0 0 0 0 0 0 0 0 1 2 3 3 3 1 0 0 0 0 0 0 0 0 0 0 0 0 0 0 0
2 2 1 0 0 0 0 0 0 0 0 0 0 0 0 0 0 1 2 3 3 3 2 0 0 0 0 0 0 0 0 0 0 0 0 0 0 0
1 1 1 0 0 0 0 0 0 0 0 1 1 1 1 0 0 0 1 2 2 2 1 0 0 0 0 0 0 0 0 0 0 0 0 0 0 0
0 0 0 0 0 0 0 0 0 0 1 2 2 2 2 1 0 0 0 1 1 1 0 0 0 0 0 0 0 0 0 0 0 0 0 0 0 0
0 0 0 0 0 0 0 0 0 0 2 2 2 2 2 1 0 0 0 0 0 0 0 0 0 0 0 0 0 0 0 0 0 0 0 0 0 0
0 0 0 0 0 0 0 0 0 0 1 2 2 2 1 0 0 0 0 0 0 0 0 0 0 0 0 0 0 0 0 0 0 0 0 0 0 0
0 0 0 0 0 0 0 0 0 0 1 2 2 1 0 0 0 0 0 0 0 0 0 0 0 0 0 0 0 0 0 0 0 0 0 0 0 0
0 0 0 0 0 0 0 0 0 0 0 1 1 0 0 0 0 0 0 0 0 0 0 0 0 0 0 0 0 0 0 0 0 0 0 0 0 0
0 0 0 0 0 0 0 0 0 0 0 0 0 0 0 0 0 0 0 0 0 0 0 0 0 0 0 0 0 0 0 0 0 0 0 0 0 0
0 0 0 0 0 0 0 0 0 0 0 0 0 0 0 0 0 0 0 0 0 0 0 0 0 0 0 0 0 0 0 0 0 0 0 0 0 0
0 0 0 0 0 0 0 0 0 0 0 0 0 0 0 0 0 0 0 0 0 0 0 0 0 0 0 0 0 0 0 0 0 0 0 0 0 0
0 0 0 0 0 0 0 0 0 0 0 0 0 0 0 0 0 0 0 0 0 0 0 0 0 0 0 0 0 0 0 0 0 0 0 0 0 0
0 0 0 0 0 0 0 0 0 0 0 0 0 0 0 0 0 0 0 0 0 0 0 0 0 0 0 0 0 0 0 0 0 0 0 0 0 0
Wind_Speed
1 1 1 1 1 1 1 2 2 1 1 1 1 2 1 2 2 2 3 6 5 4 5 5 6 5 5 5 5 5 5 5 5 5 5 5 5 5
1 1 1 1 1 1 1 1 2 2 0 1 1 1 2 2 3 1 3 6 5 4 4 5 5 5 5 5 5 5 5 5 4 4 4 4 4 4
2 2 2 1 2 1 1 1 1 1 1 1 2 1 2 2 3 2 1 2 4 5 4 4 4 5 5 5 5 5 4 4 4 3 3 3 3 3
2 2 2 2 2 2 1 2 1 2 2 2 2 2 2 2 2 1 1 1 2 6 4 3 3 4 4 4 4 4 4 3 3 3 2 2 2 2
2 2 2 3 3 3 2 2 2 2 2 2 2 2 1 2 2 1 1 1 1 4 5 3 3 3 3 3 3 3 3 3 3 2 2 2 2 2
2 2 2 2 3 3 3 3 2 3 3 2 2 2 2 2 2 2 2 2 1 2 2 2 4 4 3 2 2 2 2 2 2 2 2 2 2 2
2 2 1 1 1 0 1 2 3 3 3 2 2 2 2 2 2 2 2 2 1 1 1 2 2 2 3 3 3 1 1 1 1 2 2 2 2 1
2 2 2 3 3 3 2 1 1 3 3 3 3 3 3 3 2 3 2 2 2 1 2 1 1 1 1 0 3 3 1 1 1 1 1 2 2 2
3 3 2 2 3 3 5 5 3 1 2 3 3 3 3 3 3 3 3 2 2 1 2 2 2 1 1 2 4 3 1 1 0 1 1 1 2 2
3 3 3 3 3 3 3 3 3 3 3 4 3 2 2 1 2 2 2 2 1 1 2 2 2 2 1 1 5 3 2 1 1 1 1 1 2 3
4 4 4 3 4 3 3 3 3 3 3 2 1 2 3 1 1 2 3 3 3 2 2 2 2 2 2 2 4 6 3 3 2 2 2 2 3 4
4 4 3 3 4 5 5 4 3 3 3 4 4 4 4 4 4 4 3 3 3 2 2 2 2 2 3 3 2 3 3 4 4 4 4 3 4 5
4 4 3 6 5 6 5 4 2 2 3 3 3 3 3 3 4 4 3 3 4 3 1 2 3 3 3 2 2 3 3 2 3 4 5 5 4 5
4 3 2 6 6 5 4 2 2 3 3 3 3 3 3 3 3 3 3 4 4 3 2 3 3 3 4 4 3 2 3 3 3 4 3 4 6 7
3 1 2 5 5 5 5 4 4 4 3 3 3 3 2 2 2 2 3 3 3 3 3 4 4 4 4 5 4 3 3 3 4 4 4 4 4 4
3 3 5 5 4 3 4 5 4 3 3 3 3 2 2 2 3 3 3 3 3 3 4 4 4 4 4 5 4 5 4 3 3 4 5 5 5 5
3 3 3 4 4 4 4 4 4 4 4 4 3 3 3 3 3 3 3 3 4 3 3 3 3 3 4 5 5 5 5 4 4 4 5 6 6 5
4 4 4 4 4 4 4 4 5 4 4 4 4 4 3 4 3 3 3 4 4 4 3 2 2 3 3 4 5 6 5 5 4 4 5 6 7 5
5 5 4 4 4 4 4 4 4 4 4 4 4 4 4 3 3 4 4 4 4 4 3 3 3 4 5 5 4 6 6 5 5 5 5 6 7 6
5 5 5 4 4 4 4 4 4 3 4 4 4 4 4 4 4 4 4 5 4 4 4 4 4 4 5 6 5 4 7 6 5 6 6 6 6 6
5 5 5 4 4 4 4 4 4 4 4 4 4 4 4 4 4 4 4 4 4 4 5 4 3 4 4 4 5 5 4 6 7 6 6 6 6 6
5 5 4 4 4 4 3 3 3 3 4 4 4 3 4 4 5 5 4 4 4 4 4 3 2 3 4 6 7 7 5 4 6 8 10 9 6 6
5 4 4 4 4 3 3 4 4 4 4 4 4 4 4 4 4 4 4 4 4 4 4 3 3 3 5 6 6 6 7 6 5 5 6 8 11 13
Wind_Direction
217 195 203 176 221 243 250 248 250 222 152 125 131 117 123 98 104 135 108 100 95 80 72 66 63 68 75 75 72 69 70 69 66 61 60 58 54 53
222 224 203 202 178 197 225 252 268 265 187 118 119 120 114 132 115 113 95 106 99 88 79 69 66 74 79 78 73 67 67 71 68 60 53 52 52 52
207 207 201 198 197 189 187 204 217 225 180 132 127 128 136 133 126 136 125 138 114 108 94 82 77 76 75 79 75 70 68 66 62 57 50 45 47 48
227 217 206 185 198 192 190 197 195 205 186 167 161 141 147 137 131 139 145 130 117 113 114 98 88 84 76 75 72 69 68 63 58 51 42 34 33 37
229 228 212 194 194 183 196 197 188 176 174 181 163 145 168 150 157 166 172 161 153 127 134 138 123 104 92 83 76 67 62 53 46 43 28 12 11 6
214 219 214 201 209 196 197 199 186 174 176 186 178 171 166 161 193 193 184 166 184 150 138 147 148 151 142 123 106 86 67 50 40 41 30 5 350 342
207 209 186 107 42 194 207 196 186 188 184 190 187 180 181 184 205 206 204 190 172 189 194 183 177 182 167 164 164 139 112 69 43 35 26 11 350 326
221 212 178 171 153 148 111 75 216 206 199 194 203 207 211 210 214 214 210 212 210 172 226 225 202 204 191 122 105 124 134 98 42 26 17 4 345 325
228 212 196 173 194 184 164 170 173 217 257 237 221 226 222 214 204 209 213 234 263 176 218 240 213 223 202 117 121 131 134 129 55 12 344 335 323 306
227 221 205 188 177 197 180 178 184 185 210 229 232 239 241 233 218 240 241 226 242 181 229 261 241 235 225 193 142 152 168 202 253 283 294 305 307 286
224 221 221 203 144 187 206 195 196 181 153 157 2 35 55 55 259 214 205 214 231 214 203 252 264 260 246 223 158 165 192 206 218 243 260 272 287 269
222 216 203 218 172 192 214 212 215 206 191 177 186 189 197 183 200 227 227 231 245 237 183 228 251 256 245 215 208 195 203 196 210 225 234 249 275 268
226 221 199 180 195 207 236 236 217 234 224 212 201 196 199 193 193 214 233 245 252 253 186 212 250 252 260 259 238 234 240 238 224 219 217 222 243 268
238 232 182 161 185 202 220 202 181 218 224 219 219 214 213 210 211 214 223 234 253 268 217 219 249 258 264 263 259 239 246 255 259 259 253 221 228 232
244 193 153 167 188 202 198 192 199 216 216 221 228 233 232 229 217 209 216 219 231 232 231 233 244 251 256 265 271 267 263 255 250 258 264 261 257 250
225 180 175 183 207 213 188 197 214 219 227 233 237 233 220 212 210 208 209 208 217 213 212 223 235 247 256 263 268 267 264 259 252 259 268 267 264 260
212 213 208 199 205 208 211 211 212 209 215 228 231 225 218 217 217 213 219 220 230 231 215 209 224 233 250 260 259 260 263 263 264 267 268 269 265 263
203 214 216 217 221 221 219 217 215 218 220 220 223 224 225 226 222 211 217 230 237 239 233 214 209 225 240 241 240 260 263 267 269 263 261 269 271 267
213 224 225 225 227 228 228 228 227 224 221 220 223 225 225 226 226 224 222 229 238 242 235 219 219 235 253 264 226 216 261 268 266 262 261 266 275 280
226 230 231 231 231 231 230 231 233 229 225 225 225 226 227 227 227 231 230 231 235 241 239 226 226 237 252 272 279 250 232 256 263 267 272 275 276 280
225 231 235 233 232 234 236 236 234 230 227 225 227 225 224 225 229 231 233 229 237 241 245 246 243 242 260 268 264 260 243 227 258 272 279 278 280 278
230 230 232 232 232 231 229 230 234 234 234 233 232 231 231 230 232 235 237 235 238 246 258 265 249 232 241 250 263 271 269 257 237 246 258 264 272 278
234 231 230 229 229 228 228 227 229 234 233 234 233 231 231 232 233 233 234 238 242 244 250 253 246 239 247 256 268 274 275 274 271 264 256 239 245 260